Location: Bonningues
(50.7927°N, 2.0150°E)
Time: 05:30:03
(UTC+00:00)

Cosmos 1184 Rocket - Pass Details

Date: 08 August 2020
Orbit: 406 x 423 km, 81.2° (Epoch: 19 September)

Event Time Altitude Azimuth Distance (km) Brightness Sun altitude
Exits shadow 21:54:08 13° 227° (SW) 1,325 5.1 -18.1°
Maximum altitude 21:56:39 33° 289° (WNW) 743 4.4 -18.3°
Drops below altitude 10° 21:59:43 10° 355° (N) 1,528 6.6 -18.6°
Sets 22:01:54 0° 5° (N) 2,398 7.5 -18.8°
